Location: Garshuizen
(53.3675°N, 6.7248°E)
Time: 07:36:09
(UTC+00:00)

Cosmos 44 - Pass Details

Date: 15 May 2026
Orbit: 568 x 782 km, 65.1° (Epoch: 6 June)

Event Time Altitude Azimuth Distance (km) Brightness Sun altitude
Rises 20:50:02 0° 315° (NW) 3,276 8.9 -9.9°
Reaches altitude 10° 20:52:30 10° 319° (NW) 2,348 7.7 -10.1°
Maximum altitude 20:57:53 63° 40° (NE) 868 3.9 -10.6°
Enters shadow 21:02:45 12° 121° (ESE) 2,143 5.3 -11.0°
